Des Moines, IA

2:12 AM CST on January 20, 2018 (GMT -0600)
Des Moines International

Weather History for KDSM - January, 2014

Change the Weather History Date:

Thursday, January 23, 2014

  Actual Average Record
Temperature  
Mean Temperature 1 °F 23 °F  
Max Temperature 8 °F 31 °F 59 °F (1909)
Min Temperature -6 °F 14 °F -22 °F (1963)
Degree Days  
Heating Degree Days 64 42  
Month to date heating degree days 1087 980  
Since 1 July heating degree days 3643 3447  
Cooling Degree Days 0 0  
Month to date cooling degree days 0 0  
Year to date cooling degree days 0 0  
Moisture  
Dew Point -9 °F    
Average Humidity 63    
Maximum Humidity 68    
Minimum Humidity 57    
Precipitation  
Precipitation 0.00 in 0.03 in 0.52 in (1894)
Month to date precipitation 0.38 0.72  
Year to date precipitation 0.38 0.72  
Snow  
Snow 0.00 in 0.20 in 5.50 in (1894)
Month to date snowfall 7.5 6.1  
Since 1 July snowfall 22.5 18.0  
Snow Depth 2.00 in    
Sea Level Pressure  
Sea Level Pressure 30.73 in    
Wind  
Wind Speed 13 mph (WNW)    
Max Wind Speed 21 mph    
Max Gust Speed 25 mph    
Visibility 10 miles    
Events      
T = Trace of Precipitation, MM = Missing Value Source: NWS Daily Summary

Daily Weather History Graph

Daily Weather History Graph

Search for Another Location

Airport or City:

Trip Planner

Search our weather history database for the weather conditions in past years. The results will help you decide how hot, cold, wet, or windy it might be!

Date:

Astronomy

Jan. 23, 2014 Rise Set
Actual Time 7:34 AM CST 5:19 PM CST
Civil Twilight 7:04 AM CST 5:49 PM CST
Nautical Twilight 6:30 AM CST 6:23 PM CST
Astronomical Twilight 5:57 AM CST 6:55 PM CST
Moon No Moon Rise 11:03 AM CST (1/23)
Length of Visible Light 10h 45m
Length of Day
9h 45m
Waning Gibbous, 55% of the Moon is Illuminated
Jan 23
Waning Gibbous
Jan 23
Last Quarter
Jan 30
New
Feb 6
First Quarter
Feb 14
Full

Hourly Weather History & Observations

Time (CST) Temp. Windchill Dew Point Humidity Pressure Visibility Wind Dir Wind Speed Gust Speed Precip Events Conditions
12:54 AM -2.9 °F -22.4 °F -11.9 °F 65% 30.59 in 10.0 mi NNW 13.8 mph - N/A   Partly Cloudy
1:54 AM -2.9 °F -24.4 °F -13.0 °F 62% 30.61 in 10.0 mi NNW 17.3 mph - N/A   Partly Cloudy
2:54 AM -4.0 °F -23.7 °F -13.0 °F 65% 30.64 in 10.0 mi NNW 13.8 mph - N/A   Partly Cloudy
3:54 AM -4.0 °F -25.2 °F -14.1 °F 62% 30.66 in 10.0 mi NNW 16.1 mph 23.0 mph N/A   Partly Cloudy
4:54 AM -5.1 °F -27.8 °F -14.1 °F 65% 30.70 in 10.0 mi NNW 18.4 mph - N/A   Partly Cloudy
5:54 AM -5.1 °F -25.1 °F -14.1 °F 65% 30.73 in 10.0 mi NNW 13.8 mph - N/A   Clear
6:54 AM -5.1 °F -25.1 °F -15.0 °F 62% 30.77 in 10.0 mi NNW 13.8 mph - N/A   Clear
7:54 AM -6.0 °F -27.7 °F -15.0 °F 65% 30.78 in 10.0 mi NNW 16.1 mph - N/A   Partly Cloudy
8:54 AM -5.1 °F -26.6 °F -14.1 °F 65% 30.80 in 10.0 mi NNW 16.1 mph - N/A   Partly Cloudy
9:54 AM -2.0 °F -23.3 °F -13.0 °F 60% 30.82 in 10.0 mi NW 17.3 mph - N/A   Partly Cloudy
10:54 AM -0.0 °F -20.7 °F -11.0 °F 60% 30.84 in 10.0 mi NW 17.3 mph - N/A   Partly Cloudy
11:54 AM 1.9 °F -16.2 °F -9.9 °F 58% 30.84 in 10.0 mi NW 13.8 mph - N/A   Clear
12:54 PM 5.0 °F -13.0 °F -7.1 °F 58% 30.82 in 10.0 mi WNW 15.0 mph - N/A   Clear
1:54 PM 5.0 °F -11.6 °F -6.0 °F 61% 30.79 in 10.0 mi WNW 12.7 mph - N/A   Clear
2:54 PM 7.0 °F -7.5 °F -5.1 °F 58% 30.78 in 10.0 mi WNW 10.4 mph 20.7 mph N/A   Partly Cloudy
3:54 PM 8.1 °F -8.4 °F -4.0 °F 58% 30.78 in 10.0 mi NW 13.8 mph - N/A   Partly Cloudy
4:54 PM 8.1 °F -7.7 °F -4.0 °F 58% 30.78 in 10.0 mi WNW 12.7 mph - N/A   Partly Cloudy
5:54 PM 6.1 °F -4.3 °F -5.1 °F 60% 30.75 in 10.0 mi WNW 5.8 mph - N/A   Clear
6:54 PM 5.0 °F -4.1 °F -5.1 °F 63% 30.75 in 10.0 mi West 4.6 mph - N/A   Clear
7:54 PM 3.9 °F -5.3 °F -6.0 °F 64% 30.73 in 10.0 mi WSW 4.6 mph - N/A   Clear
8:54 PM 3.9 °F -6.9 °F -6.0 °F 64% 30.68 in 10.0 mi SSW 5.8 mph - N/A   Clear
9:54 PM 3.9 °F -11.3 °F -6.0 °F 64% 30.64 in 10.0 mi SW 10.4 mph - N/A   Clear
10:54 PM 3.0 °F -10.5 °F -7.1 °F 63% 30.61 in 10.0 mi South 8.1 mph - N/A   Clear
11:54 PM 3.9 °F -11.3 °F -7.1 °F 60% 30.56 in 10.0 mi SSW 10.4 mph - N/A   Clear